Content
SEND FEEDBACK

Daily
Averages
Monthly
Summary
Philippines

QUEZON CITY, PHILIPPINES


Home > Asia > Philippines
Elevation: 46 meters     Latitude: 14 39N     Longitude: 121 03E

WEATHER
 
SELECT A DAY
Number of Records: 172,482;   Date Range: 7/1/96 - 7/26/14
 
SHARE

PRINT THIS DATA

[ ← Previous Day ]
WEATHER ALMANAC - 28 MARCH, 2013
[ Next Day → ]
[ °F ]   °C
Weather ElementAverageHighLow
Temperature29.6 °C34 °C (12:00 pm)24 °C (6:00 am)
Dewpoint22.4 °C24 °C (1:00 pm)20.6 °C (5:00 am)
Humidity64.1 %83 % (6:00 am)47 % (8:00 am)
Barometer1010.2 hPa1012.2 hPa (9:00 am)1008.1 hPa (2:00 pm)
Wind Speed11.7 km/h22.2 km/h (2:00 pm)
Weather ElementAverage
Visibility10 km
Wind DirectionE (86.3 °)

Weather ElementTotal
Precipitation---
Cooling Degree Days10.7 (Base 18.3)
Growing Degree Days19 (Base 10)
Averaged from 30 records on 28 March, 2013
WEATHER CONDITIONS BREAKOUT
WIND DIRECTION BREAKOUT
WEATHER BY HOUR - 28 MARCH, 2013
[ °F ]   °C
Local TimeTemperatureDewpointHumidityBarometerVisibilityWind DirectionWind SpeedGust SpeedPrecipitationEventsConditions
1:00 AM27 °C22 °C74 %1011.2 hPa10 kmESE (110°)11.1 km/hPartly Cloudy
2:00 AM26.7 °C21.1 °C65 %1010.8 hPa9.7 kmESE (110°)7.2 km/hScattered Clouds
2:00 AM27 °C21 °C70 %1010.2 hPa10 kmESE (110°)7.4 km/hPartly Cloudy
3:00 AM26 °C21 °C74 %1010.2 hPa10 kmVariable3.7 km/hPartly Cloudy
4:00 AM26 °C21 °C74 %1010.2 hPa10 kmVariable1.9 km/hPartly Cloudy
5:00 AM26.1 °C20.6 °C65 %1010.5 hPa9.7 kmNE (40°)3.5 km/hScattered Clouds
5:00 AM26 °C21 °C74 %1010.2 hPa10 kmVariable3.7 km/hPartly Cloudy
6:00 AM24 °C21 °C83 %1010.2 hPa10 kmENE (70°)5.6 km/hPartly Cloudy
7:00 AM27 °C21 °C70 %1011.2 hPa10 kmCalm
8:00 AM30 °C20.6 °C47 %1011.9 hPa9.7 kmSE (140°)3.5 km/hPartly Cloudy
8:00 AM30 °C21 °C58 %1011.2 hPa10 kmVariable3.7 km/hScattered Clouds
9:00 AM31 °C21 °C55 %1012.2 hPa10 kmVariable9.3 km/hScattered Clouds
10:00 AM32 °C23 °C59 %1011.2 hPa10 kmVariable11.1 km/hScattered Clouds
11:00 AM32.2 °C22.8 °C49 %1011.9 hPa9.7 kmESE (120°)14.3 km/hScattered Clouds
11:00 AM32 °C23 °C59 %1011.2 hPa10 kmESE (120°)16.7 km/hScattered Clouds
12:00 PM34 °C23 °C52 %1010.2 hPa10 kmESE (120°)16.7 km/hPartly Cloudy
1:00 PM32 °C24 °C62 %1009.1 hPa10 kmSE (140°)20.4 km/hScattered Clouds
2:00 PM32.2 °C23.3 °C50 %1008.8 hPa9.7 kmESE (120°)18 km/hScattered Clouds
2:00 PM32 °C23 °C59 %1008.1 hPa10 kmESE (120°)22.2 km/hScattered Clouds
3:00 PM33 °C24 °C59 %1008.1 hPa10 kmESE (110°)16.7 km/hScattered Clouds
4:00 PM33 °C23 °C55 %1008.1 hPa10 kmESE (120°)16.7 km/hPartly Cloudy
5:00 PM32.2 °C23.3 °C51 %1008.5 hPa9.7 kmESE (110°)18 km/hScattered Clouds
5:00 PM32 °C23 °C59 %1008.1 hPa10 kmESE (110°)18.5 km/hPartly Cloudy
6:00 PM31 °C24 °C66 %1009.1 hPa10 kmESE (110°)20.4 km/hPartly Cloudy
7:00 PM29 °C24 °C74 %1010.2 hPa10 kmESE (110°)16.7 km/hPartly Cloudy
8:00 PM29 °C24 °C74 %1011.2 hPa10 kmESE (110°)13 km/hPartly Cloudy
9:00 PM29 °C24 °C74 %1011.2 hPa10 kmESE (120°)13 km/hPartly Cloudy
10:00 PM29 °C23 °C70 %1011.2 hPa10 kmESE (110°)14.8 km/hPartly Cloudy
11:00 PM28.3 °C23.3 °C67 %1012.2 hPa9.7 kmSE (130°)10.8 km/hScattered Clouds
11:00 PM28 °C23 °C74 %1011.2 hPa10 kmSE (130°)11.1 km/hPartly Cloudy
Hourly data recorded from RPLL, located 0 kilometers away from Quezon City, Philippines







STORIES FROM OUR PARTNERS